Content
SEND FEEDBACK

United States of America Flag

FORTUNA, NORTH DAKOTA


Home > North America > United States > North Dakota
Elevation: 2204 feet     Latitude: 48 55N     Longitude: 103 49W

WEATHER
 
SELECT A DAY
Number of Records: 121,575;   Date Range: 11/18/10 - 3/22/16
 
SHARE

PRINT THIS DATA

[ ← Previous Day ]
WEATHER ALMANAC - JANUARY 30, 2013
[ Next Day → ]
[ °C ]   °F
Weather ElementAverageHighLow
Temperature-14.5 °F (3:35 am)-18.4 °F (6:35 am)
Dewpoint-20.9 °F (3:35 am)-25.6 °F (7:35 am)
Humidity72.2 %77 % (1:55 am)64 % (12:35 pm)
Barometer30.02 in30.13 in (12:35 am)29.95 in (3:15 pm)
Wind Speed14.9 mph25.3 mph (9:55 pm)
Wind Gust32.2 mph (9:35 pm)
Weather ElementAverage
Visibility8.4 mi
Wind DirectionNW (314.4 °)

Weather ElementTotal
Precipitation0.07 in
Heating Degree Days74.2 (Base 65)
Averaged from 70 records on January 30, 2013
WEATHER CONDITIONS BREAKOUT
WIND DIRECTION BREAKOUT
WEATHER BY HOUR - JANUARY 30, 2013
[ °C ]   °F
Local TimeTemperatureDewpointHumidityBarometerVisibilityWind DirectionWind SpeedGust SpeedPrecipitationEventsConditions
12:35 AM-11.2 °F-18.4 °F70 %30.13 in10.0 miNW (310°)13.8 mphClear
12:55 AM-11.2 °F-18.4 °F70 %30.12 in10.0 miNW (310°)12.7 mphClear
1:15 AM-11.2 °F-18.4 °F70 %30.11 in10.0 miWNW (300°)12.7 mphClear
1:35 AM-11.2 °F-18.4 °F70 %30.10 in10.0 miWNW (290°)11.5 mphClear
1:55 AM-11.2 °F-16.6 °F77 %30.08 in10.0 miWNW (290°)10.4 mphSnowLight Snow
2:15 AM-11.2 °F-16.6 °F77 %30.07 in8.0 miWNW (300°)11.5 mphSnowLight Snow
2:35 AM-11.2 °F-16.6 °F77 %30.06 in8.0 miNW (320°)13.8 mphSnowLight Snow
2:55 AM-9.4 °F-16.6 °F71 %30.06 in10.0 miNW (320°)19.6 mphSnowLight Snow
3:15 AM-11.2 °F-18.4 °F70 %30.05 in10.0 miNW (320°)15.0 mphMostly Cloudy
3:35 AM0.0 °F0.0 °F30.04 in10.0 miNW (320°)12.7 mphClear
3:55 AM-13.0 °F-18.4 °F77 %30.04 in10.0 miNW (320°)11.5 mphClear
4:15 AM-13.0 °F-20.2 °F70 %30.03 in10.0 miNW (320°)11.5 mphClear
4:35 AM-14.8 °F-20.2 °F77 %30.03 in10.0 miNW (320°)10.4 mphClear
4:55 AM-14.8 °F-20.2 °F77 %30.03 in10.0 miNW (320°)8.1 mphClear
5:15 AM-16.6 °F-22.0 °F76 %30.03 in10.0 miWNW (300°)8.1 mphClear
5:35 AM-16.6 °F-22.0 °F76 %30.03 in10.0 miWNW (290°)8.1 mphClear
6:15 AM-16.6 °F-23.8 °F70 %30.02 in10.0 miWNW (300°)11.5 mphClear
6:35 AM-18.4 °F-23.8 °F76 %30.01 in10.0 miWNW (300°)9.2 mphClear
6:55 AM-18.4 °F-23.8 °F76 %30.01 in10.0 miWNW (300°)9.2 mphClear
7:15 AM-18.4 °F-23.8 °F76 %30.00 in10.0 miWest (280°)8.1 mphClear
7:35 AM-18.4 °F-25.6 °F70 %30.00 in10.0 miWest (280°)11.5 mphClear
7:55 AM-18.4 °F-25.6 °F70 %30.00 in10.0 miWNW (290°)11.5 mphClear
8:15 AM-18.4 °F-25.6 °F70 %30.00 in10.0 miWNW (290°)10.4 mphClear
8:35 AM-18.4 °F-25.6 °F70 %30.00 in10.0 miWNW (290°)10.4 mphClear
8:55 AM-18.4 °F-23.8 °F76 %30.00 in10.0 miWNW (290°)9.2 mphClear
9:15 AM-16.6 °F-23.8 °F70 %29.99 in10.0 miWNW (290°)9.2 mphClear
9:35 AM-16.6 °F-23.8 °F70 %30.00 in10.0 miWNW (290°)11.5 mphClear
9:55 AM-16.6 °F-23.8 °F70 %29.99 in10.0 miWNW (300°)12.7 mphClear
10:15 AM-16.6 °F-23.8 °F70 %29.98 in10.0 miNW (310°)10.4 mphClear
10:35 AM-16.6 °F-23.8 °F70 %29.98 in10.0 miNW (320°)11.5 mphClear
10:55 AM-16.6 °F-22.0 °F76 %29.99 in10.0 miNW (320°)16.1 mphClear
11:15 AM-16.6 °F-22.0 °F76 %29.99 in10.0 miNNW (330°)13.8 mphClear
11:35 AM-16.6 °F-22.0 °F76 %29.99 in10.0 miNW (320°)13.8 mphClear
11:55 AM-14.8 °F-22.0 °F70 %29.99 in10.0 miNNW (330°)11.5 mphClear
12:15 PM-14.8 °F-22.0 °F70 %29.98 in10.0 miNW (320°)12.7 mphClear
12:35 PM-13.0 °F-22.0 °F64 %29.98 in10.0 miNNW (330°)15.0 mphClear
12:55 PM-13.0 °F-22.0 °F64 %29.97 in10.0 miNNW (330°)11.5 mphClear
1:15 PM-13.0 °F-20.2 °F70 %29.97 in10.0 miNW (320°)13.8 mphClear
1:35 PM-13.0 °F-20.2 °F70 %29.96 in10.0 miNW (310°)13.8 mphClear
1:55 PM-13.0 °F-20.2 °F70 %29.96 in10.0 miNW (320°)15.0 mphClear
2:15 PM-13.0 °F-20.2 °F70 %29.96 in10.0 miNW (320°)17.3 mphClear
2:35 PM-13.0 °F-20.2 °F70 %29.96 in10.0 miNW (320°)16.1 mphClear
2:55 PM-13.0 °F-20.2 °F70 %29.96 in10.0 miNW (310°)15.0 mphClear
3:15 PM-13.0 °F-20.2 °F70 %29.95 in10.0 miNW (320°)15.0 mphClear
3:35 PM-13.0 °F-20.2 °F70 %29.96 in10.0 miNW (320°)17.3 mphClear
3:55 PM-13.0 °F-20.2 °F70 %29.96 in10.0 miNW (320°)16.1 mphClear
4:15 PM-13.0 °F-20.2 °F70 %29.96 in10.0 miNW (320°)18.4 mphClear
4:35 PM-13.0 °F-20.2 °F70 %29.97 in10.0 miNW (320°)17.3 mphClear
4:55 PM-13.0 °F-20.2 °F70 %29.97 in10.0 miNW (320°)18.4 mph23.0 mphClear
5:15 PM-13.0 °F-20.2 °F70 %29.98 in10.0 miNW (320°)15.0 mphClear
5:35 PM-13.0 °F-20.2 °F70 %29.98 in10.0 miNW (320°)18.4 mph25.3 mphClear
5:55 PM-13.0 °F-20.2 °F70 %29.98 in10.0 miNNW (330°)16.1 mphClear
6:15 PM-14.8 °F-22.0 °F70 %29.99 in10.0 miNW (320°)13.8 mphClear
6:35 PM-14.8 °F-22.0 °F70 %30.00 in10.0 miNW (320°)15.0 mphClear
6:55 PM-14.8 °F-22.0 °F70 %30.00 in9.0 miNW (320°)15.0 mphSnowLight Snow
7:15 PM-13.0 °F-20.2 °F70 %30.00 in9.0 miNW (320°)15.0 mphRainLight Rain
7:35 PM-13.0 °F-20.2 °F70 %30.01 in3.0 miNW (310°)17.3 mph21.9 mph0.01 inSnowLight Snow
7:55 PM-13.0 °F-20.2 °F70 %30.01 in3.0 miNW (320°)23.0 mph0.02 inSnowLight Snow
8:15 PM-13.0 °F-20.2 °F70 %30.02 in5.0 miNNW (330°)18.4 mphRainLight Rain
8:35 PM-14.8 °F-20.2 °F77 %30.03 in4.0 miNW (320°)23.0 mph27.6 mphRainLight Rain
8:55 PM-16.6 °F-22.0 °F76 %30.04 in4.0 miNNW (330°)18.4 mph26.5 mphRainLight Rain
9:15 PM-16.6 °F-22.0 °F76 %30.04 in3.0 miNNW (330°)19.6 mphSnowLight Snow
9:35 PM-16.6 °F-22.0 °F76 %30.05 in1.5 miNNW (330°)24.2 mph32.2 mphSnowLight Snow
9:55 PM-16.6 °F-22.0 °F76 %30.06 in1.5 miNNW (330°)25.3 mph32.2 mph0.02 inSnowLight Snow
10:15 PM-16.6 °F-22.0 °F76 %30.06 in2.0 miNNW (330°)24.2 mphRainLight Rain
10:35 PM-16.6 °F-22.0 °F76 %30.07 in1.8 miNNW (330°)25.3 mph32.2 mphSnowLight Snow
10:55 PM-16.6 °F-22.0 °F76 %30.07 in1.2 miNNW (330°)24.2 mph29.9 mph0.02 inSnowLight Snow
11:15 PM-16.6 °F-22.0 °F76 %30.09 in2.0 miNNW (330°)25.3 mph29.9 mphRainLight Rain
11:35 PM-16.6 °F-22.0 °F76 %30.09 in2.0 miNNW (330°)21.9 mph29.9 mphRainLight Rain
11:55 PM-16.6 °F-22.0 °F76 %30.10 in2.0 miNNW (330°)21.9 mphRainLight Rain
Hourly data recorded from KD50, located miles away from Fortuna, North Dakota




STORIES FROM OUR PARTNERS